• In Romania
  • List of Countries
  • For 7 days
  • Water Temperature
  • Satellite Maps
  • Weather Map
  • Weather Widgets
  • user-avatar
    Login

    Hourly Weather Krutye Slancy

    Today, 20 May, Sunday

    Time Temperature Precipitation Wind Pressure Humidity
    00:00 +13°C° 0 mm 3 mps 746 mmHg 92%
    01:00 +14°C° 0 mm 2 mps 746 mmHg 92%
    02:00 +14°C° 0 mm 2 mps 747 mmHg 93%
    03:00 +13°C° 0 mm 2 mps 746 mmHg 93%
    04:00 +14°C° 0 mm 2 mps 747 mmHg 91%
    05:00 +15°C° 0 mm 2 mps 747 mmHg 90%
    06:00 +15°C° 0 mm 2 mps 747 mmHg 89%
    07:00 +18°C° 0 mm 1 mps 748 mmHg 83%
    08:00 +20°C° 0 mm 1 mps 748 mmHg 78%
    09:00 +21°C° 0 mm 1 mps 748 mmHg 72%
    10:00 +22°C° 0.1 mm 1 mps 748 mmHg 67%
    11:00 +23°C° 0.1 mm 1 mps 748 mmHg 62%
    12:00 +24°C° 0.1 mm 1 mps 748 mmHg 57%
    13:00 +24°C° 0.3 mm 1 mps 748 mmHg 57%
    14:00 +22°C° 0.3 mm 0 mps 748 mmHg 57%
    15:00 +22°C° 0.3 mm 0 mps 748 mmHg 57%
    16:00 +24°C° 0.5 mm 1 mps 748 mmHg 61%
    17:00 +23°C° 0.5 mm 1 mps 748 mmHg 66%
    18:00 +23°C° 0.5 mm 1 mps 748 mmHg 71%
    19:00 +20°C° 0.6 mm 2 mps 748 mmHg 76%
    20:00 +19°C° 0.6 mm 2 mps 748 mmHg 81%
    21:00 +18°C° 0.6 mm 2 mps 748 mmHg 86%
    22:00 +17°C° 0.2 mm 3 mps 749 mmHg 88%
    23:00 +17°C° 0.2 mm 3 mps 749 mmHg 90%

    Tomorrow, 21 May, Monday

    Time Temperature Precipitation Wind Pressure Humidity
    00:00 +15°C° 0.2 mm 4 mps 749 mmHg 92%
    01:00 +15°C° 0.2 mm 4 mps 749 mmHg 93%
    02:00 +15°C° 0.2 mm 4 mps 749 mmHg 94%
    03:00 +14°C° 0.2 mm 4 mps 749 mmHg 95%
    04:00 +14°C° 0.5 mm 4 mps 749 mmHg 95%
    05:00 +14°C° 0.5 mm 4 mps 750 mmHg 95%
    06:00 +14°C° 0.5 mm 4 mps 750 mmHg 95%
    07:00 +15°C° 1 mm 5 mps 750 mmHg 95%
    08:00 +15°C° 1 mm 5 mps 751 mmHg 94%
    09:00 +15°C° 1 mm 5 mps 751 mmHg 94%
    10:00 +16°C° 0.5 mm 5 mps 751 mmHg 93%
    11:00 +16°C° 0.5 mm 6 mps 751 mmHg 91%
    12:00 +17°C° 0.5 mm 6 mps 751 mmHg 90%
    13:00 +17°C° 0.5 mm 6 mps 752 mmHg 89%
    14:00 +19°C° 0.5 mm 6 mps 752 mmHg 88%
    15:00 +19°C° 0.5 mm 6 mps 752 mmHg 87%
    16:00 +19°C° 0.2 mm 6 mps 752 mmHg 87%
    17:00 +19°C° 0.2 mm 6 mps 752 mmHg 87%
    18:00 +19°C° 0.2 mm 5 mps 752 mmHg 87%
    19:00 +17°C° 0.1 mm 6 mps 753 mmHg 89%
    20:00 +17°C° 0.1 mm 6 mps 753 mmHg 91%
    21:00 +16°C° 0.1 mm 6 mps 753 mmHg 93%
    22:00 +15°C° 0.2 mm 6 mps 753 mmHg 93%
    23:00 +15°C° 0.2 mm 5 mps 754 mmHg 93%

    Day after tomorrow, 22 May, Tuesday

    Time Temperature Precipitation Wind Pressure Humidity
    00:00 +14°C° 0.2 mm 5 mps 754 mmHg 93%
    01:00 +14°C° 0.4 mm 5 mps 754 mmHg 92%
    02:00 +13°C° 0.4 mm 5 mps 754 mmHg 92%
    03:00 +13°C° 0.4 mm 5 mps 755 mmHg 91%
    04:00 +13°C° 0.2 mm 5 mps 755 mmHg 90%
    05:00 +13°C° 0.2 mm 5 mps 755 mmHg 89%
    06:00 +13°C° 0.2 mm 5 mps 755 mmHg 88%
    07:00 +14°C° 0 mm 5 mps 755 mmHg 86%
    08:00 +15°C° 0 mm 6 mps 756 mmHg 84%
    09:00 +17°C° 0 mm 6 mps 756 mmHg 81%
    10:00 +19°C° 0 mm 6 mps 756 mmHg 78%
    11:00 +21°C° 0 mm 6 mps 756 mmHg 75%
    12:00 +22°C° 0 mm 6 mps 756 mmHg 72%
    13:00 +23°C° 0 mm 6 mps 756 mmHg 71%
    14:00 +24°C° 0 mm 6 mps 756 mmHg 70%
    15:00 +24°C° 0 mm 6 mps 756 mmHg 69%
    16:00 +25°C° 0 mm 5 mps 756 mmHg 73%
    17:00 +23°C° 0 mm 5 mps 756 mmHg 76%
    18:00 +22°C° 0 mm 4 mps 756 mmHg 79%
    19:00 +21°C° 0 mm 5 mps 756 mmHg 77%
    20:00 +20°C° 0 mm 5 mps 756 mmHg 76%
    21:00 +19°C° 0 mm 5 mps 757 mmHg 74%
    22:00 +19°C° 0 mm 5 mps 757 mmHg 71%
    23:00 +19°C° 0 mm 5 mps 757 mmHg 68%

    23 May, Wednesday

    Time Temperature Precipitation Wind Pressure Humidity
    00:00 +17°C° 0 mm 5 mps 757 mmHg 65%
    01:00 +17°C° 0 mm 5 mps 756 mmHg 65%
    02:00 +18°C° 0 mm 4 mps 756 mmHg 64%
    03:00 +17°C° 0 mm 4 mps 756 mmHg 64%
    04:00 +17°C° 0 mm 4 mps 756 mmHg 66%
    05:00 +16°C° 0 mm 3 mps 756 mmHg 68%
    06:00 +16°C° 0 mm 3 mps 756 mmHg 70%
    07:00 +17°C° 0 mm 3 mps 756 mmHg 70%
    08:00 +18°C° 0 mm 3 mps 756 mmHg 69%
    09:00 +18°C° 0 mm 3 mps 756 mmHg 69%
    10:00 +20°C° 0 mm 4 mps 756 mmHg 68%
    11:00 +21°C° 0 mm 4 mps 756 mmHg 67%
    12:00 +22°C° 0 mm 4 mps 756 mmHg 65%
    13:00 +23°C° 0 mm 4 mps 755 mmHg 65%
    14:00 +25°C° 0 mm 4 mps 755 mmHg 64%
    15:00 +26°C° 0 mm 4 mps 754 mmHg 64%
    16:00 +26°C° 0 mm 3 mps 754 mmHg 68%
    17:00 +25°C° 0 mm 3 mps 754 mmHg 71%
    18:00 +25°C° 0 mm 2 mps 754 mmHg 75%
    19:00 +24°C° 0 mm 2 mps 753 mmHg 78%
    20:00 +21°C° 0 mm 2 mps 753 mmHg 81%
    21:00 +20°C° 0 mm 2 mps 753 mmHg 84%
    22:00 +20°C° 0 mm 2 mps 753 mmHg 85%
    23:00 +19°C° 0 mm 3 mps 753 mmHg 85%

    24 May, Thursday

    Time Temperature Precipitation Wind Pressure Humidity
    00:00 +19°C° 0 mm 3 mps 753 mmHg 85%
    01:00 +19°C° 0.2 mm 4 mps 753 mmHg 84%
    02:00 +19°C° 0.2 mm 4 mps 753 mmHg 82%
    03:00 +19°C° 0.2 mm 4 mps 753 mmHg 81%
    04:00 +18°C° 0.4 mm 4 mps 752 mmHg 80%
    05:00 +18°C° 0.4 mm 3 mps 752 mmHg 79%
    06:00 +18°C° 0.4 mm 3 mps 752 mmHg 78%
    07:00 +19°C° 0 mm 2 mps 752 mmHg 74%
    08:00 +21°C° 0 mm 2 mps 752 mmHg 70%
    09:00 +23°C° 0 mm 2 mps 752 mmHg 67%
    10:00 +24°C° 0 mm 2 mps 752 mmHg 65%
    11:00 +25°C° 0 mm 2 mps 751 mmHg 62%
    12:00 +25°C° 0 mm 3 mps 751 mmHg 60%
    13:00 +26°C° 0 mm 3 mps 751 mmHg 61%
    14:00 +26°C° 0 mm 2 mps 751 mmHg 61%
    15:00 +26°C° 0 mm 2 mps 751 mmHg 61%
    16:00 +25°C° 0 mm 2 mps 751 mmHg 64%
    17:00 +25°C° 0 mm 1 mps 750 mmHg 66%
    18:00 +24°C° 0 mm 1 mps 750 mmHg 69%
    19:00 +23°C° 0 mm 1 mps 750 mmHg 70%
    20:00 +22°C° 0 mm 1 mps 750 mmHg 70%
    21:00 +20°C° 0 mm 1 mps 750 mmHg 71%
    22:00 +20°C° 0.1 mm 1 mps 750 mmHg 71%
    23:00 +20°C° 0.1 mm 1 mps 750 mmHg 72%

    25 May, Friday

    Time Temperature Precipitation Wind Pressure Humidity
    00:00 +20°C° 0.1 mm 1 mps 750 mmHg 72%
    01:00 +18°C° 0 mm 2 mps 750 mmHg 75%
    02:00 +18°C° 0 mm 2 mps 750 mmHg 79%
    03:00 +17°C° 0 mm 2 mps 750 mmHg 83%
    04:00 +17°C° 0.1 mm 2 mps 750 mmHg 85%
    05:00 +18°C° 0.1 mm 2 mps 751 mmHg 87%
    06:00 +18°C° 0.1 mm 3 mps 751 mmHg 89%
    07:00 +18°C° 0.3 mm 3 mps 751 mmHg 88%
    08:00 +19°C° 0.3 mm 3 mps 751 mmHg 86%
    09:00 +19°C° 0.3 mm 3 mps 752 mmHg 84%
    10:00 +20°C° 0.6 mm 3 mps 752 mmHg 83%
    11:00 +20°C° 0.6 mm 4 mps 752 mmHg 81%
    12:00 +20°C° 0.6 mm 4 mps 752 mmHg 80%
    13:00 +20°C° 0.4 mm 5 mps 753 mmHg 82%
    14:00 +19°C° 0.4 mm 6 mps 753 mmHg 83%
    15:00 +18°C° 0.4 mm 7 mps 753 mmHg 84%
    16:00 +17°C° 0 mm 7 mps 753 mmHg 84%
    17:00 +17°C° 0 mm 7 mps 754 mmHg 84%
    18:00 +16°C° 0 mm 7 mps 754 mmHg 83%
    19:00 +16°C° 0 mm 6 mps 755 mmHg 81%
    20:00 +15°C° 0 mm 6 mps 755 mmHg 79%
    21:00 +14°C° 0 mm 6 mps 756 mmHg 77%
    22:00 +14°C° 0 mm 6 mps 756 mmHg 77%
    23:00 +13°C° 0 mm 6 mps 756 mmHg 76%
    Show more